User: anonymous   Login
Location: Dompnac
(44.5644°N, 4.1026°E)
Time: 17:53:01
(UTC+00:00)
Language:

Cosmos 494 Rocket - Orbit

View from above orbital plane
View from above orbital plane
View from above satellite
View from above satellite

Ground track
Ground track

The orbit data is extracted from the following two-line orbital elements,

1  6061U 72043B   20338.43574323  .00000032  00000-0  18320-4 0  9999
2  6061  74.0572   3.1506 0019884 180.0034 180.1125 14.40601613540509
Epoch (UTC): 03 December 2020 10:27:28
Eccentricity: 0.0019884
inclination: 74.0572°
perigee height: 742 km
apogee height: 771 km
right ascension of ascending node: 3.1506°
argument of perigee: 180.0034°
revolutions per day: 14.40601613
mean anomaly at epoch: 180.1125°
orbit number at epoch: 54050

The dashed part of the orbit path shows where the satellite is in the earth's shadow,  

DLR